Location: Detroit
(42.3310°N, 83.0460°W)
Time: 14:47:32
(UTC-05:00)

X-37B - Pass Details

Date: 06 December 2021
Orbit: 334 x 337 km, 45.0° (Epoch: 11 January)

Event Time Altitude Azimuth Distance (km) Brightness Sun altitude
Rises 19:32:24 0° 251° (WSW) 2,097 5.5 -27.4°
Reaches altitude 10° 19:34:23 10° 251° (WSW) 1,263 4.1 -27.8°
Enters shadow 19:34:34 11° 251° (WSW) 1,193 3.9 -27.8°
